Simultaneous Nadir Overpasses (SNOs) Predictions

Prediction of SNOs between METOP-B and TERRA Satellite Orbit:

Table of predicted SNOs for the next 14.0 days since TLE Epoch: 6/4/2022
Index Date (METOP-B) Time (METOP-B) Lat,Lon (METOP-B) SZA (METOP-B ) Date (TERRA) Time (TERRA) Lat,Lon (TERRA) SZA (TERRA ) Distance(km) Time Diff (sec)
1 06/05/2022 18:31:49 -81.16, 122.57 119.19 06/05/2022 18:32:58 -81.16, 122.74 119.14 3.02 69
2 06/05/2022 19:22:27 81.19, -69.08 60.94 06/05/2022 19:22:23 81.19, -69.18 60.93 1.80 4
3 06/08/2022 14:06:11 -81.16,-170.90 119.46 06/08/2022 14:07:09 -81.16,-170.90 119.43 0.32 58
4 06/08/2022 14:56:50 81.18, -2.97 60.62 06/08/2022 14:56:34 81.19, -2.85 60.63 2.07 16
5 06/11/2022 09:40:34 -81.17,-104.40 119.68 06/11/2022 09:41:21 -81.16,-104.54 119.68 2.79 47
6 06/11/2022 10:31:13 81.18, 63.49 60.40 06/11/2022 10:30:46 81.18, 63.48 60.38 0.37 27
7 06/14/2022 05:14:57 -81.17, -37.93 119.85 06/14/2022 05:15:32 -81.17, -37.83 119.82 1.89 35
8 06/14/2022 06:05:35 81.19, 130.30 60.27 06/14/2022 06:04:57 81.20, 130.17 60.24 2.21 38
9 06/17/2022 00:49:20 -81.17, 28.50 119.97 06/17/2022 00:49:44 -81.17, 28.52 119.96 0.36 24



Historial Predications of SNOs between METOP-B and TERRA
